Location: Bédeille
(43.0872°N, 1.1041°E)
Time: 02:29:26
(UTC+00:00)

Cosmos 1328 - Pass Details

Date: 03 February 2023
Orbit: 518 x 543 km, 82.5° (Epoch: 27 March)

Event Time Altitude Azimuth Distance (km) Brightness Sun altitude
Rises 17:46:37 0° 188° (S) 2,698 7.7 -7.1°
Reaches altitude 10° 17:48:46 10° 188° (S) 1,807 6.8 -7.5°
Maximum altitude 17:52:45 86° 277° (W) 550 3.8 -8.2°
Drops below altitude 10° 17:56:44 10° 7° (N) 1,808 6.2 -8.9°
Sets 17:58:54 0° 8° (N) 2,700 7.1 -9.3°
